N1BFO Weather Reports


Display with metric or nautical units.
time (UTC)temp
F
wind
direction
speed
MPH
gust
MPH
rain 1hr
in
rain 24hr
in
rain mn
in
humidity
%
barometer
mb
20260901005527 66 0 0.0 0.0 0.00 0.00 0.00 78 1017.9
20260901005032 66 0 0.0 0.0 0.00 0.00 0.00 78 1017.8
20260901004549 67 0 0.0 0.0 0.00 0.00 0.00 77 1017.7
20260901004027 67 0 0.0 0.0 0.00 0.00 0.00 77 1017.6
20260901003528 67 0 0.0 0.0 0.00 0.00 0.00 76 1017.6
20260901003052 67 0 0.0 0.0 0.00 0.00 0.00 76 1017.6
20260901002526 68 0 0.0 0.0 0.00 0.00 0.00 76 1017.5
20260901002027 68 0 0.0 0.0 0.00 0.00 0.00 76 1017.5
20260901001548 68 0 0.0 0.0 0.00 0.00 0.00 75 1017.4
20260901001031 68 0 0.0 0.0 0.00 0.00 0.00 76 1017.4
20260901000525 68 0 0.0 0.0 0.00 0.00 0.00 75 1017.4
20260901000047 68 0 0.0 0.0 0.00 0.00 0.00 75 1017.4
20260831235528 68 0 0.0 0.0 0.00 0.00 0.00 76 1017.4
20260831235025 68 0 0.0 0.0 0.00 0.00 0.00 76 1017.5
20260831234600 68 0 0.0 0.0 0.00 0.00 0.00 75 1017.5
20260831234026 68 0 0.0 0.0 0.00 0.00 0.00 75 1017.5
20260831233527 68 0 0.0 0.0 0.00 0.00 0.00 75 1017.6
20260831233048 68 0 0.0 0.0 0.00 0.00 0.00 74 1017.7
20260831232526 68 0 0.0 0.0 0.00 0.00 0.00 74 1017.7
20260831232028 69 0 0.0 0.0 0.00 0.00 0.00 73 1017.7
20260831231551 69 0 0.0 0.0 0.00 0.00 0.00 72 1017.6
20260831231030 69 0 0.0 0.0 0.00 0.00 0.00 71 1017.7
20260831230527 70 0 0.0 0.0 0.00 0.00 0.00 70 1017.7
20260831230054 70 0 0.0 0.0 0.00 0.00 0.00 70 1017.9
20260831225526 71 0 0.0 0.0 0.00 0.00 0.00 69 1017.9
20260831225027 71 0 0.0 0.0 0.00 0.00 0.00 68 1018.0
20260831224550 72 0 0.0 0.0 0.00 0.00 0.00 66 1018.0
20260831224030 72 0 0.0 1.0 0.00 0.00 0.00 65 1018.0
20260831223528 73 0 0.0 1.0 0.00 0.00 0.00 64 1018.0
20260831223051 73 124 0.0 1.0 0.00 0.00 0.00 63 1018.0
20260831222529 73 0 0.0 2.0 0.00 0.00 0.00 62 1017.9
20260831222026 73 0 0.0 2.0 0.00 0.00 0.00 62 1018.0
20260831221603 73 0 0.0 1.0 0.00 0.00 0.00 62 1018.0
20260831221029 74 0 0.0 1.0 0.00 0.00 0.00 60 1018.0
20260831220529 74 0 0.0 1.0 0.00 0.00 0.00 61 1017.9
20260831220047 74 0 0.0 2.0 0.00 0.00 0.00 58 1017.9
20260831215528 75 231 0.0 3.0 0.00 0.00 0.00 57 1017.8
20260831215028 75 0 0.0 3.0 0.00 0.00 0.00 59 1017.8
20260831214610 75 0 0.0 0.0 0.00 0.00 0.00 60 1017.8
20260831214025 76 0 0.0 2.0 0.00 0.00 0.00 57 1017.8
20260831213528 76 0 0.0 2.0 0.00 0.00 0.00 56 1017.8
20260831213101 76 180 0.0 4.0 0.00 0.00 0.00 54 1017.8
20260831212524 77 0 0.0 4.0 0.00 0.00 0.00 54 1017.9
20260831212028 77 0 1.0 4.0 0.00 0.00 0.00 52 1017.9
20260831211552 77 0 0.0 3.0 0.00 0.00 0.00 53 1018.0
20260831211026 77 288 1.0 3.0 0.00 0.00 0.00 55 1018.1
20260831210530 77 133 0.0 3.0 0.00 0.00 0.00 52 1018.2
20260831210048 77 178 0.0 3.0 0.00 0.00 0.00 53 1018.1
20260831205529 77 128 0.0 1.0 0.00 0.00 0.00 55 1018.1
20260831205031 77 123 0.0 2.0 0.00 0.00 0.00 55 1018.1
20260831204548 77 122 0.0 6.0 0.00 0.00 0.00 53 1018.1
20260831204030 77 278 1.0 6.0 0.00 0.00 0.00 52 1018.1
20260831203525 77 90 0.0 4.0 0.00 0.00 0.00 54 1018.2
20260831203103 76 0 0.0 5.0 0.00 0.00 0.00 55 1018.1
20260831202529 76 137 0.0 5.0 0.00 0.00 0.00 54 1018.2
20260831202029 76 25 1.0 4.0 0.00 0.00 0.00 52 1018.1
20260831201554 76 9 1.0 4.0 0.00 0.00 0.00 52 1018.1
20260831201024 76 36 0.0 7.0 0.00 0.00 0.00 51 1018.1
20260831200529 77 103 1.0 7.0 0.00 0.00 0.00 49 1018.1
20260831200053 77 298 0.0 3.0 0.00 0.00 0.00 51 1018.2
20260831195525 77 197 0.0 3.0 0.00 0.00 0.00 53 1018.3
20260831195027 77 145 0.0 2.0 0.00 0.00 0.00 52 1018.3
20260831194601 77 325 0.0 2.0 0.00 0.00 0.00 50 1018.3
20260831194027 77 120 0.0 5.0 0.00 0.00 0.00 53 1018.4
20260831193527 77 337 1.0 5.0 0.00 0.00 0.00 53 1018.4
20260831193049 77 51 0.0 4.0 0.00 0.00 0.00 52 1018.4
20260831192525 77 352 1.0 4.0 0.00 0.00 0.00 52 1018.4
20260831192024 77 167 1.0 4.0 0.00 0.00 0.00 50 1018.4
20260831191550 76 26 1.0 4.0 0.00 0.00 0.00 50 1018.5
20260831191027 77 62 1.0 3.0 0.00 0.00 0.00 51 1018.7
20260831190531 77 27 0.0 1.0 0.00 0.00 0.00 47 1018.7
20260831190057 77 0 0.0 2.0 0.00 0.00 0.00 48 1018.8
20260831185527 77 346 0.0 4.0 0.00 0.00 0.00 48 1018.8
20260831185025 77 8 0.0 4.0 0.00 0.00 0.00 50 1018.7
20260831184552 78 116 0.0 4.0 0.00 0.00 0.00 45 1018.8
20260831184024 78 336 1.0 4.0 0.00 0.00 0.00 44 1018.7
20260831183529 78 0 0.0 3.0 0.00 0.00 0.00 45 1018.8
20260831183046 78 338 0.0 1.0 0.00 0.00 0.00 47 1018.9
20260831182525 78 108 0.0 2.0 0.00 0.00 0.00 45 1019.0
20260831182029 78 13 0.0 5.0 0.00 0.00 0.00 44 1019.2
20260831181556 78 170 2.0 5.0 0.00 0.00 0.00 44 1019.1
20260831181027 79 136 1.0 4.0 0.00 0.00 0.00 45 1019.1
20260831180533 79 321 1.0 8.0 0.00 0.00 0.00 46 1019.1
20260831180100 79 13 2.0 8.0 0.00 0.00 0.00 46 1019.1
20260831175525 79 46 1.0 7.0 0.00 0.00 0.00 44 1019.1
20260831175027 79 2 1.0 7.0 0.00 0.00 0.00 43 1019.0
20260831174547 78 36 0.0 4.0 0.00 0.00 0.00 44 1019.0
20260831174025 79 93 2.0 5.0 0.00 0.00 0.00 40 1018.9
20260831173528 79 311 1.0 5.0 0.00 0.00 0.00 45 1019.1
20260831173055 79 360 2.0 5.0 0.00 0.00 0.00 44 1019.3
20260831172525 78 349 2.0 4.0 0.00 0.00 0.00 47 1019.3
20260831172026 78 250 0.0 3.0 0.00 0.00 0.00 47 1019.3
20260831171547 78 359 0.0 4.0 0.00 0.00 0.00 44 1019.5
20260831171024 79 99 0.0 5.0 0.00 0.00 0.00 44 1019.6
20260831170532 78 8 2.0 5.0 0.00 0.00 0.00 44 1019.5
20260831170049 79 359 1.0 3.0 0.00 0.00 0.00 40 1019.5
20260831165525 79 0 0.0 3.0 0.00 0.00 0.00 42 1019.5
20260831165026 78 156 1.0 3.0 0.00 0.00 0.00 40 1019.5
20260831164547 77 184 0.0 4.0 0.00 0.00 0.00 44 1019.6
20260831164026 77 104 1.0 6.0 0.00 0.00 0.00 42 1019.7
20260831163528 78 6 2.0 6.0 0.00 0.00 0.00 40 1019.6
20260831163054 78 15 1.0 4.0 0.00 0.00 0.00 41 1019.8
20260831162530 78 86 0.0 4.0 0.00 0.00 0.00 46 1019.8
20260831162027 78 320 2.0 4.0 0.00 0.00 0.00 44 1019.7
20260831161550 78 15 1.0 4.0 0.00 0.00 0.00 44 1020.0
20260831161027 78 60 1.0 2.0 0.00 0.00 0.00 41 1020.0
20260831160527 78 164 0.0 5.0 0.00 0.00 0.00 41 1019.9
20260831160047 79 100 1.0 5.0 0.00 0.00 0.00 49 1020.0
20260831155526 79 357 0.0 1.0 0.00 0.00 0.00 46 1020.1
20260831155028 79 86 0.0 1.0 0.00 0.00 0.00 48 1020.2
20260831154619 79 125 0.0 2.0 0.00 0.00 0.00 47 1020.0
20260831154028 78 0 0.0 2.0 0.00 0.00 0.00 47 1020.1
20260831153532 78 117 0.0 2.0 0.00 0.00 0.00 48 1020.0
20260831153054 77 72 0.0 2.0 0.00 0.00 0.00 52 1020.2
20260831152528 76 139 1.0 2.0 0.00 0.00 0.00 49 1020.2
20260831152029 76 160 0.0 3.0 0.00 0.00 0.00 46 1020.2
20260831151549 77 108 0.0 3.0 0.00 0.00 0.00 49 1020.3
20260831151028 76 128 0.0 2.0 0.00 0.00 0.00 50 1020.3
20260831150530 76 174 0.0 4.0 0.00 0.00 0.00 49 1020.3
20260831150048 76 20 1.0 5.0 0.00 0.00 0.00 56 1020.3
20260831145528 75 13 1.0 5.0 0.00 0.00 0.00 53 1020.3
20260831145029 75 136 0.0 5.0 0.00 0.00 0.00 54 1020.4
20260831144552 75 94 0.0 2.0 0.00 0.00 0.00 51 1020.4
20260831144028 74 115 0.0 4.0 0.00 0.00 0.00 57 1020.5
20260831143527 74 15 0.0 4.0 0.00 0.00 0.00 54 1020.5
20260831143054 74 353 1.0 4.0 0.00 0.00 0.00 54 1020.5
20260831142526 73 346 1.0 4.0 0.00 0.00 0.00 55 1020.5
20260831142028 73 342 2.0 4.0 0.00 0.00 0.00 52 1020.5
20260831141549 73 96 1.0 4.0 0.00 0.00 0.00 57 1020.5
20260831141025 73 329 1.0 3.0 0.00 0.00 0.00 53 1020.4
20260831140527 73 136 0.0 2.0 0.00 0.00 0.00 52 1020.4
20260831140048 73 0 0.0 2.0 0.00 0.00 0.00 56 1020.4
20260831135525 72 94 0.0 4.0 0.00 0.00 0.00 55 1020.3
20260831135027 73 117 2.0 4.0 0.00 0.00 0.00 52 1020.3
20260831134552 73 174 0.0 3.0 0.00 0.00 0.00 55 1020.4
20260831134031 73 217 1.0 3.0 0.00 0.00 0.00 54 1020.4
20260831133528 73 193 0.0 1.0 0.00 0.00 0.00 53 1020.3
20260831133055 73 329 0.0 2.0 0.00 0.00 0.00 57 1020.3
20260831132525 72 32 0.0 2.0 0.00 0.00 0.00 53 1020.3
20260831132033 72 117 0.0 2.0 0.00 0.00 0.00 56 1020.4
20260831131603 72 105 0.0 2.0 0.00 0.00 0.00 57 1020.3
20260831131027 72 101 0.0 3.0 0.00 0.00 0.00 57 1020.3
20260831130524 71 140 0.0 3.0 0.00 0.00 0.00 57 1020.2
20260831130052 71 93 1.0 3.0 0.00 0.00 0.00 56 1020.2
20260831125527 71 338 0.0 2.0 0.00 0.00 0.00 59 1020.3
20260831125028 70 0 0.0 3.0 0.00 0.00 0.00 59 1020.3
20260831124549 70 19 0.0 3.0 0.00 0.00 0.00 62 1020.4
20260831124027 70 87 1.0 3.0 0.00 0.00 0.00 60 1020.3
20260831123525 69 120 0.0 4.0 0.00 0.00 0.00 65 1020.3
20260831123050 69 0 0.0 5.0 0.00 0.00 0.00 66 1020.4
20260831122527 69 79 1.0 5.0 0.00 0.00 0.00 66 1020.3
20260831122025 68 177 0.0 2.0 0.00 0.00 0.00 66 1020.3
20260831121549 68 290 0.0 2.0 0.00 0.00 0.00 71 1020.2
20260831121028 67 0 1.0 3.0 0.00 0.00 0.00 71 1020.2
20260831120527 67 354 0.0 3.0 0.00 0.00 0.00 74 1020.1
20260831120101 66 327 1.0 2.0 0.00 0.00 0.00 75 1020.0
20260831115531 66 0 0.0 2.0 0.00 0.00 0.00 76 1019.9
20260831115027 65 0 0.0 2.0 0.00 0.00 0.00 78 1019.9
20260831114556 65 0 0.0 2.0 0.00 0.00 0.00 79 1019.9
20260831114029 64 88 0.0 1.0 0.00 0.00 0.00 83 1019.9
20260831113529 63 0 0.0 2.0 0.00 0.00 0.00 84 1019.9
20260831113050 62 0 0.0 2.0 0.00 0.00 0.00 86 1019.8
20260831112528 61 0 0.0 1.0 0.00 0.00 0.00 90 1019.8
20260831112028 59 0 0.0 0.0 0.00 0.00 0.00 93 1019.8
20260831111554 59 0 0.0 1.0 0.00 0.00 0.00 93 1019.7
20260831111027 58 0 0.0 1.0 0.00 0.00 0.00 94 1019.7
20260831110529 58 0 0.0 2.0 0.00 0.00 0.00 94 1019.6
20260831110049 58 0 0.0 2.0 0.00 0.00 0.00 95 1019.7
20260831105526 58 0 0.0 1.0 0.00 0.00 0.00 95 1019.7
20260831105028 58 0 0.0 1.0 0.00 0.00 0.00 95 1019.6
20260831104554 58 0 0.0 1.0 0.00 0.00 0.00 95 1019.6
20260831104027 58 0 0.0 1.0 0.00 0.00 0.00 95 1019.6
20260831103529 58 255 0.0 0.0 0.00 0.00 0.00 95 1019.5
20260831103057 58 0 0.0 1.0 0.00 0.00 0.00 95 1019.5
20260831102529 58 0 0.0 1.0 0.00 0.00 0.00 95 1019.5
20260831102028 58 255 0.0 1.0 0.00 0.00 0.00 95 1019.5
20260831101556 58 0 0.0 0.0 0.00 0.00 0.00 94 1019.5
20260831101028 58 0 0.0 0.0 0.00 0.00 0.00 94 1019.4
20260831100530 58 0 0.0 0.0 0.00 0.00 0.00 95 1019.4
20260831100047 58 0 0.0 0.0 0.00 0.00 0.00 94 1019.5
20260831095526 58 0 0.0 0.0 0.00 0.00 0.00 95 1019.3
20260831095027 58 0 0.0 0.0 0.00 0.00 0.00 94 1019.2
20260831094552 58 0 0.0 0.0 0.00 0.00 0.00 94 1019.1
20260831094029 58 0 0.0 0.0 0.00 0.00 0.00 94 1019.1
20260831093528 58 0 0.0 0.0 0.00 0.00 0.00 93 1019.0
20260831093053 58 0 0.0 0.0 0.00 0.00 0.00 93 1019.1
20260831092528 59 0 0.0 0.0 0.00 0.00 0.00 93 1019.0
20260831092025 59 0 0.0 0.0 0.00 0.00 0.00 93 1018.9
20260831091559 59 0 0.0 0.0 0.00 0.00 0.00 93 1018.8
20260831091030 59 0 0.0 0.0 0.00 0.00 0.00 93 1018.9
20260831090528 59 0 0.0 0.0 0.00 0.00 0.00 92 1018.8
20260831090051 60 0 0.0 0.0 0.00 0.00 0.00 92 1018.7
20260831085606 60 0 0.0 0.0 0.00 0.00 0.00 92 1018.7
20260831085028 60 0 0.0 1.0 0.00 0.00 0.00 92 1018.6
20260831084547 60 0 0.0 1.0 0.00 0.00 0.00 92 1018.5
20260831084026 60 0 0.0 1.0 0.00 0.00 0.00 93 1018.5
20260831083527 60 0 0.0 0.0 0.00 0.00 0.00 92 1018.4
20260831083057 61 0 0.0 0.0 0.00 0.00 0.00 92 1018.3
20260831082524 61 0 0.0 0.0 0.00 0.00 0.00 92 1018.3
20260831082024 61 0 0.0 0.0 0.00 0.00 0.00 92 1018.3
20260831081558 61 0 0.0 0.0 0.00 0.00 0.00 92 1018.3
20260831081023 61 0 0.0 0.0 0.00 0.00 0.00 92 1018.2
20260831080525 61 0 0.0 0.0 0.00 0.00 0.00 92 1018.2
20260831080113 61 0 0.0 0.0 0.00 0.00 0.00 92 1018.2
20260831075526 61 0 0.0 0.0 0.00 0.00 0.00 92 1018.2
20260831075027 61 0 0.0 0.0 0.00 0.00 0.00 91 1018.2
20260831074555 61 0 0.0 0.0 0.00 0.00 0.00 91 1018.0
20260831074027 61 0 0.0 0.0 0.00 0.00 0.00 91 1017.9
20260831073527 61 0 0.0 1.0 0.00 0.00 0.00 91 1017.9
20260831073111 61 0 0.0 1.0 0.00 0.00 0.00 90 1017.9
20260831072526 62 0 0.0 0.0 0.00 0.00 0.00 90 1018.0
20260831072030 62 0 0.0 0.0 0.00 0.00 0.00 90 1017.9
20260831071553 62 0 0.0 0.0 0.00 0.00 0.00 90 1018.0
20260831071029 62 0 0.0 1.0 0.00 0.00 0.00 89 1018.0
20260831070529 62 0 0.0 1.0 0.00 0.00 0.00 89 1017.9
20260831070048 62 0 0.0 1.0 0.00 0.00 0.00 90 1018.0
20260831065528 62 0 0.0 0.0 0.00 0.00 0.00 89 1018.0
20260831065029 63 0 0.0 0.0 0.00 0.00 0.00 89 1017.9
20260831064549 63 0 0.0 0.0 0.00 0.00 0.00 88 1017.9
20260831064028 63 0 0.0 0.0 0.00 0.00 0.00 88 1017.9
20260831063527 63 0 0.0 0.0 0.00 0.00 0.00 88 1017.9
20260831063050 63 0 0.0 1.0 0.00 0.00 0.00 88 1017.9
20260831062527 63 0 0.0 1.0 0.00 0.00 0.00 87 1017.9
20260831062030 63 0 0.0 0.0 0.00 0.00 0.00 87 1017.9
20260831061549 64 0 0.0 0.0 0.00 0.00 0.00 87 1017.8
20260831061029 64 0 0.0 1.0 0.00 0.00 0.00 87 1017.8
20260831060525 64 0 0.0 1.0 0.00 0.00 0.00 86 1017.7
20260831060055 64 0 0.0 1.0 0.00 0.00 0.00 86 1017.6
20260831055523 64 0 0.0 1.0 0.00 0.00 0.00 85 1017.6
20260831055027 65 0 0.0 1.0 0.00 0.00 0.00 85 1017.5
20260831054552 65 0 0.0 1.0 0.00 0.00 0.00 85 1017.6
20260831054032 65 0 0.0 1.0 0.00 0.00 0.00 85 1017.6
20260831053529 65 0 0.0 0.0 0.00 0.00 0.00 85 1017.6
20260831053057 65 0 0.0 1.0 0.00 0.00 0.00 85 1017.6
20260831052527 65 0 0.0 1.0 0.00 0.00 0.00 85 1017.6
20260831052025 65 0 0.0 1.0 0.00 0.00 0.00 85 1017.5
20260831051550 65 0 0.0 0.0 0.00 0.00 0.00 84 1017.5
20260831051027 65 0 0.0 1.0 0.00 0.00 0.00 84 1017.4
20260831050527 66 0 0.0 1.0 0.00 0.00 0.00 83 1017.3
20260831050055 66 0 0.0 0.0 0.00 0.00 0.00 83 1017.2
20260831045527 66 0 0.0 0.0 0.00 0.00 0.00 82 1017.1
20260831045025 67 0 0.0 1.0 0.00 0.00 0.00 81 1016.9
20260831044556 67 0 0.0 1.0 0.00 0.00 0.00 81 1016.9
20260831044025 67 0 0.0 0.0 0.00 0.00 0.00 80 1016.9
20260831043527 68 0 0.0 0.0 0.00 0.00 0.00 79 1016.9
20260831043052 68 0 0.0 1.0 0.00 0.00 0.00 79 1016.8
20260831042524 68 0 0.0 1.0 0.00 0.00 0.00 78 1016.7
20260831042025 69 0 0.0 1.0 0.00 0.00 0.00 77 1016.7
20260831041559 69 0 0.0 1.0 0.00 0.00 0.00 76 1016.7
20260831041029 69 0 0.0 1.0 0.00 0.00 0.00 76 1016.6
20260831040527 70 0 0.0 1.0 0.00 0.00 0.00 76 1016.7
20260831040053 70 0 0.0 2.0 0.00 0.00 0.00 75 1016.6
20260831035526 70 0 0.0 5.0 0.00 0.00 0.00 75 1016.7
20260831035027 70 0 0.0 5.0 0.00 0.00 0.00 75 1016.6
20260831034553 70 0 0.0 5.0 0.00 0.00 0.00 75 1016.7
20260831034026 70 0 0.0 4.0 0.00 0.00 0.00 75 1016.6
20260831033528 71 0 0.0 4.0 0.00 0.00 0.00 75 1016.6
20260831033050 71 0 0.0 4.0 0.00 0.00 0.00 75 1016.7
20260831032525 71 358 0.0 3.0 0.00 0.00 0.00 74 1016.7
20260831032027 72 9 1.0 3.0 0.00 0.00 0.00 73 1016.7
20260831031551 72 0 0.0 2.0 0.00 0.00 0.00 73 1016.7
20260831031031 72 30 0.0 1.0 0.00 0.00 0.00 74 1016.8
20260831030525 72 35 0.0 3.0 0.00 0.00 0.00 74 1016.6
20260831030053 72 0 0.0 3.0 0.00 0.00 0.00 74 1016.7
20260831025525 71 7 0.0 3.0 0.00 0.00 0.00 75 1016.6
20260831025031 71 0 1.0 3.0 0.00 0.00 0.00 75 1016.6
20260831024547 71 0 0.0 1.0 0.00 0.00 0.00 77 1016.6
20260831024027 71 64 0.0 1.0 0.00 0.00 0.00 77 1016.7
20260831023529 71 13 0.0 2.0 0.00 0.00 0.00 78 1016.7
20260831023058 71 0 0.0 2.0 0.00 0.00 0.00 78 1016.6
20260831022530 71 103 0.0 2.0 0.00 0.00 0.00 79 1016.7
20260831022025 71 0 0.0 1.0 0.00 0.00 0.00 80 1016.7
20260831021552 71 0 0.0 1.0 0.00 0.00 0.00 80 1016.6
20260831021028 71 0 0.0 0.0 0.00 0.00 0.00 80 1016.6
20260831020529 71 0 0.0 1.0 0.00 0.00 0.00 80 1016.6
20260831020051 71 0 0.0 1.0 0.00 0.00 0.00 79 1016.6
20260831015524 72 0 0.0 0.0 0.00 0.00 0.00 79 1016.5
20260831015028 72 0 0.0 0.0 0.00 0.00 0.00 78 1016.5
20260831014549 72 0 0.0 2.0 0.00 0.00 0.00 77 1016.4
20260831014027 72 0 0.0 2.0 0.00 0.00 0.00 76 1016.5
20260831013525 73 89 0.0 2.0 0.00 0.00 0.00 76 1016.4
20260831013055 73 0 0.0 2.0 0.00 0.00 0.00 75 1016.4
20260831012525 73 0 0.0 3.0 0.00 0.00 0.00 75 1016.4
20260831012028 73 171 0.0 3.0 0.00 0.00 0.00 75 1016.2
20260831011548 73 228 0.0 2.0 0.00 0.00 0.00 75 1016.1
20260831011026 73 0 0.0 2.0 0.00 0.00 0.00 75 1016.1
20260831010526 73 169 0.0 3.0 0.00 0.00 0.00 75 1016.2
20260831010107 73 0 0.0 3.0 0.00 0.00 0.00 75 1016.2